Preview of NWS' New Version of Forecast
This preview is not operational and should not be used for support decisions.

Regional Weather Roundup (RWR)

Issued by National Weather Service (NWS)

                            
000
ASUS43 KMKX 180220
RWRWI 

WISCONSIN REGIONAL WEATHER ROUNDUP
NATIONAL WEATHER SERVICE MILWAUKEE/SULLIVAN WI
900 PM CDT WED APR 17 2019

NOTE: "FAIR" INDICATES FEW OR NO CLOUDS BELOW 12,000 FEET WITH NO
SIGNIFICANT WEATHER AND/OR OBSTRUCTIONS TO VISIBILITY.

WIZ001-002-006>008-014>016-023>028-180300-
NORTHWEST WISCONSIN
  
CITY           SKY/WX    TMP DP  RH WIND       PRES   REMARKS
SUPERIOR ARPT  DRIZZLE   36  36 100 NE16G24   29.70S WCI  26          
ASHLAND        LGT RAIN  38  37  97 NE17      29.68F FOG     WCI  28  
HAYWARD        LGT RAIN  40  37  89 NE16G24   29.61S FOG     WCI  31  
SIREN          DRIZZLE   39  39  98 NE12G17   29.62S WCI  32          
CUMBERLAND     LGT RAIN  37  37 100 NE13      29.58R WCI  29          
RICE LAKE      RAIN      40  34  77 N14G20    29.58R WCI  33          
CHETEK         DRIZZLE   40  40  99 N9        29.57R WCI  34          
LADYSMITH      LGT RAIN  41  40  96 N13       29.57S                  
EAU CLAIRE     CLOUDY    44  42  93 N7        29.54R                  
MENOMONIE      DRIZZLE  N/A N/A N/A N8        29.57R                  
NEW RICHMOND   DRIZZLE   41  40  95 N10       29.59R                  
OSCEOLA        CLOUDY    41  40  95 N8        29.62R                  
$$
 
WIZ003>005-009-010-017-018-180300-
NORTH CENTRAL WISCONSIN
  
CITY           SKY/WX    TMP DP  RH WIND       PRES   REMARKS
MANITOWISH WTR DRIZZLE   37  37 100 N7        29.59S WCI  32          
ARBOR VITAE    DRIZZLE   39  37  93 NE9       29.56F WCI  33          
WOODRUFF       DRIZZLE   39  37  93 NE9       29.56F WCI  33          
RHINELANDER    LGT RAIN  40  37  89 NE7       29.55F                  
EAGLE RIVER    RAIN      38  38 100 NE10      29.55F WCI  31          
LAND O LAKES   DRIZZLE   39  39 100 NE7       29.59F WCI  34          
PHILLIPS       LGT RAIN  38  38 100 N12       29.56S WCI  30          
TOMAHAWK       NOT AVBL                                               
MEDFORD        RAIN      38  38  98 NE7       29.50F WCI  33          
MERRILL        MIX PCPN  40  40 100 E6        29.51F                  
$$
 
WIZ029-030-035-036-043>047-180300-
CENTRAL WISCONSIN
  
CITY           SKY/WX    TMP DP  RH WIND       PRES   REMARKS
WAUSAU         LGT RAIN  41  40  96 E6        29.49F FOG              
MOSINEE        LGT RAIN  43  43 100 SE6       29.55R                  
MARSHFIELD     LGT RAIN  44  44 100 E10       29.49F                  
STEVENS POINT  LGT RAIN  40  40 100 E10       29.52S WCI  34          
WAUPACA        RAIN      45  44  96 N5        29.52R                  
WAUTOMA        LGT RAIN  45  45 100 VRB3      29.50F FOG              
WISC RAPIDS    LGT RAIN  43  38  82 E9        29.50F                  
CAMP DOUGLAS   CLOUDY    45  45 100 E6        29.46F                  
$$
 
WIZ011>013-019>022-031-037>040-048>050-180300-
NORTHEAST WISCONSIN
  
CITY           SKY/WX    TMP DP  RH WIND       PRES   REMARKS
ANTIGO         RAIN      39  39 100 E5        29.52F                  
SHAWANO        TSTM      46  43  91 N6        29.55R                  
OCONTO         CLOUDY    42  41  97 NE9       29.53F                  
STURGEON BAY   LGT RAIN  44  42  93 NW8       29.57R                  
GREEN BAY      HVY RAIN  47  45  93 NE10      29.51F FOG              
MANITOWOC      CLOUDY    46  44  93 S12       29.52F                  
APPLETON       LGT RAIN  45  45 100 N12       29.50  FOG              
CLINTONVILLE   RAIN      44  41  91 NE6       29.53R                  
OSHKOSH        TSTM      48  45  89 NW9G21    29.49F FOG              
$$
 
WIZ032>034-041-042-053>061-180300-
SOUTHWEST WISCONSIN
  
CITY           SKY/WX    TMP DP  RH WIND       PRES   REMARKS
LA CROSSE      CLOUDY    48  45  89 NW8       29.48R                  
SPARTA         CLOUDY    43  43 100 CALM      29.49R                  
VIROQUA        MOCLDY    57  57 100 SW15      29.48R                  
BOSCOBEL       MOCLDY    58  56  93 SW9       29.50S FOG              
PRAIRIE DU CHI CLOUDY    60  54  79 W16       29.52R                  
PLATTEVILLE    CLOUDY    63  62  96 W15       29.53S                  
$$

WIZ056-057-062-063-064-067-068-180300-
SOUTH CENTRAL WISCONSIN
  
CITY           SKY/WX    TMP DP  RH WIND       PRES   REMARKS
REEDSBURG      CLOUDY    49  49 100 CALM      29.48F FOG              
BARABOO/DELLS  FOG       49  47  93 SE3       29.48F VSB 1            
LONE ROCK      MOCLDY    55  53  93 E5        29.49F FOG              
MINERAL POINT  LGT RAIN  61  61 100 W10       29.52S                  
MADISON        CLOUDY    61  55  81 S6        29.48S THUNDER          
MIDDLETON      CLOUDY    60  57  90 W12       29.51R                  
WATERTOWN      MOCLDY    59  55  86 S3        29.49S                  
MONROE         MOCLDY    69  56  62 MISG      29.52R                  
JANESVILLE     FAIR      68  57  68 SW12      29.53R                  
$$
 
WIZ051-052-058>065-066-070>072-180300-
SOUTHEAST WISCONSIN
  
CITY           SKY/WX    TMP DP  RH WIND       PRES   REMARKS
MILWAUKEE      MOCLDY    59  48  67 S10       29.52F                  
WAUKESHA       MOCLDY    52  46  82 S3        29.53F                  
MILWAUKEE/TIMM CLOUDY    50  43  76 S5        29.53F                  
RACINE         MOCLDY    54  45  71 S6        29.55F                  
KENOSHA        FAIR      70  54  56 S16G24    29.54F                  
FOND DU LAC    MOCLDY    52  48  86 S10       29.48F                  
SHEBOYGAN      CLOUDY    48  44  86 S8        29.50F                  
WEST BEND      MOCLDY    46  45  93 CALM      29.51F                  
JUNEAU         FAIR      55  50  84 SE9       29.50S                  
$$

LSZ147-162-180300-
LAKE SUPERIOR
  
STATION/POSITION TIME  TEMP    WIND        PRES    WAVE
                       AIR SEA DIR/SP/G            HT/PER
                 (UTC) (F)     (DEG/KT/KT) (MB)    (FT/S)
$$
 
LMZ867-665-643>646-180300-
LAKE MICHIGAN
  
STATION/POSITION TIME  TEMP    WIND        PRES    WAVE
                       AIR SEA DIR/SP/G            HT/PER
                 (UTC) (F)     (DEG/KT/KT) (MB)    (FT/S)
NORTHPORT PIER   0200   39      30/  5/ 12 1002.4
KEWAUNEE LAKESHO 0154   45     180/  7/ 12  999.1F
SHEBOYGAN LAKESH 0200   44     180/ 17/ 18  999.4F
MILWAUKEE LAKESH 0200   43                   N/A
KENOSHA   LAKESH 0200   48     180/ 13/ 17 1000.7
$$

TC  - TEMPERATURE IN CELSIUS
VSB - VISIBILITY IN STATUTE MILES
WCI - WIND CHILL INDEX
HX  - HEAT INDEX